Regional Weather Roundup
Issued by NWS

Home | Current Version | Previous Version | Graphics & Text | Print | Product List | Glossary Off
Versions: 1 2 3 4 5 6 7 8 9 10 11 12 13 14 15 16 17 18 19 20 21 22 23 24 25 26 27 28 29 30 31 32 33 34 35 36 37 38 39 40 41 42 43 44 45 46 47 48 49 50

000
ASUS43 KMKX 271800
RWRWI

WISCONSIN REGIONAL WEATHER ROUNDUP
NATIONAL WEATHER SERVICE MILWAUKEE/SULLIVAN WI
1200 PM CST MON FEB 27 2017

NOTE: "FAIR" INDICATES FEW OR NO CLOUDS BELOW 12,000 FEET WITH NO
SIGNIFICANT WEATHER AND/OR OBSTRUCTIONS TO VISIBILITY.

WIZ001-002-006>008-014>016-023>028-271900-
NORTHWEST WISCONSIN

CITY           SKY/WX    TMP DP  RH WIND       PRES   REMARKS
SUPERIOR ARPT  CLOUDY    27  20  73 E5        29.99F WCI  22
ASHLAND        CLOUDY    29  22  75 CALM      30.00S
6HR MIN TEMP:  18; 6HR MAX TEMP:  29; 6HR PCP: TRACE;

HAYWARD        CLOUDY    36  22  56 S10       29.96F WCI  28
6HR MIN TEMP:  21; 6HR MAX TEMP:  36; 6HR PCP: TRACE;

SIREN          CLOUDY    37  23  57 SW10      29.96F WCI  29
CUMBERLAND     SUNNY     37  21  52 SW15      29.97S WCI  28
RICE LAKE      SUNNY     37  21  51 S9        30.01S WCI  31
CHETEK         SUNNY     36  21  55 S8        30.01S WCI  29
LADYSMITH      CLOUDY    37  21  51 S12       30.01S WCI  30
EAU CLAIRE     NOT AVBL
MENOMONIE      SUNNY     36  21  55 S9        30.03S WCI  29
NEW RICHMOND   SUNNY     39  18  42 SW14      29.99S WCI  31
OSCEOLA        SUNNY     43  23  45 SW13      30.00F
$$

WIZ003>005-009-010-017-018-271900-
NORTH CENTRAL WISCONSIN

CITY           SKY/WX    TMP DP  RH WIND       PRES   REMARKS
MANITOWISH WTR CLOUDY    32  22  67 S10       29.95F WCI  24
ARBOR VITAE    PTSUNNY   37  23  57 SW14G21     N/A  WCI  28
WOODRUFF       PTSUNNY   37  23  57 SW14G21     N/A  WCI  28
RHINELANDER    MOSUNNY   37  19  48 S15G22    30.00S WCI  28
EAGLE RIVER    SUNNY     36  17  46 SW16      29.98S WCI  26
LAND O LAKES   CLOUDY    32  20  60 S9G17     29.99F WCI  25
PHILLIPS       MOSUNNY   35  21  55 SW12G18   29.98R WCI  27
TOMAHAWK       SUNNY     38  18  43 S6        30.01S WCI  34
MEDFORD        SUNNY     32  21  63 S13       30.03R WCI  22
MERRILL        NOT AVBL
$$

WIZ029-030-035-036-043>047-271900-
CENTRAL WISCONSIN

CITY           SKY/WX    TMP DP  RH WIND       PRES   REMARKS
WAUSAU         SUNNY     37  19  48 S10       30.04S WCI  30
6HR MIN TEMP:  22; 6HR MAX TEMP:  37;

MOSINEE        MOSUNNY   36  21  55 S13G20    30.06S WCI  27
MARSHFIELD     SUNNY     37  19  48 S12       30.03F WCI  29
6HR MIN TEMP:  19; 6HR MAX TEMP:  37;

STEVENS POINT  SUNNY     35  19  52 S12       30.07F WCI  27
WAUPACA        SUNNY     42  20  41 SE8       30.10S
WAUTOMA        SUNNY     41  20  43 S10       30.09F
6HR MIN TEMP:  14; 6HR MAX TEMP:  41;

WISC RAPIDS    SUNNY     39  20  46 S12G22    30.08S WCI  32
6HR MIN TEMP:  21; 6HR MAX TEMP:  39;

CAMP DOUGLAS   NOT AVBL
$$

WIZ011>013-019>022-031-037>040-048>050-271900-
NORTHEAST WISCONSIN

CITY           SKY/WX    TMP DP  RH WIND       PRES   REMARKS
ANTIGO         SUNNY     35  20  55 SW13      30.05R WCI  26
SHAWANO        SUNNY     41  20  42 S7        30.10F
6HR MIN TEMP:  23; 6HR MAX TEMP:  41;

OCONTO         SUNNY     35  23  61 S7        30.12S WCI  29
STURGEON BAY   SUNNY     37  23  56 S14       30.12S WCI  28
6HR MIN TEMP:  18; 6HR MAX TEMP:  37; 6HR PCP: TRACE;

GREEN BAY      SUNNY     38  25  59 S10       30.12S WCI  31
6HR MIN TEMP:  21; 6HR MAX TEMP:  38;

MANITOWOC      NOT AVBL
APPLETON       MOSUNNY   37  21  52 SE9       30.10S WCI  31
CLINTONVILLE   SUNNY     37  23  56 S9        30.10S WCI  31
OSHKOSH        MOSUNNY   37  24  59 S13       30.11S WCI  29
6HR MIN TEMP:  20; 6HR MAX TEMP:  37;

$$

WIZ032>034-041-042-053>061-271900-
SOUTHWEST WISCONSIN

CITY           SKY/WX    TMP DP  RH WIND       PRES   REMARKS
LA CROSSE      SUNNY     41  25  53 S14       30.06F
6HR MIN TEMP:  22; 6HR MAX TEMP:  41;

SPARTA         SUNNY     40  24  53 S13       30.08S WCI  32
VIROQUA        SUNNY     38  25  58 S9        30.06S WCI  32
BOSCOBEL       MOSUNNY   44  30  57 S9        30.08F
6HR MIN TEMP:  19; 6HR MAX TEMP:  44;

PRAIRIE DU CHI SUNNY     42  30  63 S6        30.07F
PLATTEVILLE    MOSUNNY   41  37  85 S13       30.09S
$$

WIZ056-057-062-063-064-067-068-271900-
SOUTH CENTRAL WISCONSIN

CITY           SKY/WX    TMP DP  RH WIND       PRES   REMARKS
REEDSBURG      PTSUNNY   39  26  59 S8        30.08F WCI  33
6HR MIN TEMP:  21; 6HR MAX TEMP:  39;

BARABOO/DELLS  PTSUNNY   38  24  56 S14       30.09S WCI  30
LONE ROCK      CLOUDY    43  28  56 SW5       30.09F
MINERAL POINT  MOSUNNY   41  34  75 S7        30.08F
MADISON        PTSUNNY   39  31  72 S9        30.10F WCI  33
6HR MIN TEMP:  22; 6HR MAX TEMP:  40;

MIDDLETON      CLOUDY    41  32  70 S7        30.10F
WATERTOWN      PTSUNNY   40  28  62 S8        30.12R WCI  35
MONROE         MOSUNNY   43  32  65 S14       30.10S
JANESVILLE     MOSUNNY   48  32  53 SW10      30.11F
$$

WIZ051-052-058>065-066-070>072-271900-
SOUTHEAST WISCONSIN

CITY           SKY/WX    TMP DP  RH WIND       PRES   REMARKS
MILWAUKEE      MOSUNNY   44  31  60 SE14      30.14F
6HR MIN TEMP:  23; 6HR MAX TEMP:  44;

WAUKESHA       PTSUNNY   41  28  60 S9        30.14S
MILWAUKEE/TIMM PTSUNNY   43  25  49 S10       30.14S
RACINE         CLOUDY    41  28  60 S12       30.16S
6HR MIN TEMP:  23; 6HR MAX TEMP:  41;

KENOSHA        PTSUNNY   46  32  58 SE9       30.14S
6HR MIN TEMP:  25; 6HR MAX TEMP:  46;

FOND DU LAC    PTSUNNY   39  22  50 S14       30.11S WCI  31
6HR MIN TEMP:  22; 6HR MAX TEMP:  39; 6HR PCP: TRACE;

SHEBOYGAN      SUNNY     37  26  64 S13       30.14S WCI  29
6HR MIN TEMP:  19; 6HR MAX TEMP:  37;

WEST BEND      SUNNY     41  25  52 S10       30.12F
JUNEAU         MOSUNNY   39  26  59 S12       30.13R WCI  32
$$

LSZ147-162-271900-
LAKE SUPERIOR

STATION/POSITION TIME  TEMP    WIND        PRES    WAVE
                       AIR SEA DIR/SP/G            HT/PER
                 (UTC) (F)     (DEG/KT/KT) (MB)    (FT/S)
DEVILS ISLAND    1700   24     300/  3/  4 1017.2F
PORT WING        1740   26     360/  4/  6 1016.3S
SAXON HARBOR     1740   28     360/  4/  5 1015.6S
$$

LMZ867-665-643>646-271900-
LAKE MICHIGAN

STATION/POSITION TIME  TEMP    WIND        PRES    WAVE
                       AIR SEA DIR/SP/G            HT/PER
                 (UTC) (F)     (DEG/KT/KT) (MB)    (FT/S)
CHAMBERS ISLAND  1740   37     160/  6/ 13 1019.6S
NORTHPORT PIER   1740   34     160/ 11/ 18 1020.0F
SISTER BAY       1705          170/ 17/ 20   N/A
KEWAUNEE LAKESHO 1730   34     180/ 14/ 17 1020.2F
SHEBOYGAN LAKESH 1700   35     170/ 13/ 14 1021.2F
PORT WASHINGTON  1740   39     170/  7/  8 1022.0S
MILWAUKEE LAKESH 1730   37     150/ 10/ 11   N/A
KENOSHA   LAKESH 1700   36     150/  9/ 10 1021.0
$$

TC  - TEMPERATURE IN CELSIUS
VSB - VISIBILITY IN STATUTE MILES
WCI - WIND CHILL INDEX
HX  - HEAT INDEX





USA.gov is the U.S. government's official web portal to all federal, state and local government web resources and services.